Regional Weather Roundup
Issued by NWS

Home | Current Version | Previous Version | Graphics & Text | Print | Product List | Glossary On
Versions: 1 2 3 4 5 6 7 8 9 10 11 12 13 14 15 16 17 18 19 20 21 22 23 24 25 26 27 28 29 30 31 32 33 34 35 36 37 38 39 40 41 42 43 44 45 46 47 48 49 50
000
ASUS43 KDMX 121308
RWRIA

WEATHER ROUNDUP FOR IOWA
NATIONAL WEATHER SERVICE DES MOINES IA
700 AM CST FRI FEB 12 2016

NOTE: "FAIR" INDICATES FEW OR NO CLOUDS BELOW 12,000 FEET WITH NO
SIGNIFICANT WEATHER AND/OR OBSTRUCTIONS TO VISIBILITY.

* - THESE STATIONS ARE NOT NWS STATIONS...THUS NOT UNDER NWS
QUALITY CONTROL.  THEY ALSO DO NOT REPORT WEATHER SUCH
AS PRECIPITATION OR FOG.

IAZ001>003-012>014-020>022-031>034-043>046-121400-
   NORTHWEST IOWA

CITY           SKY/WX    TMP DP  RH WIND       PRES   REMARKS
CARROLL *      CLOUDY    18  14  86 NW18      30.33R WCI   2
CHEROKEE *     CLOUDY    16  12  86 N10       30.36R WCI   3
DENISON *      CLOUDY    18  14  86 NW14      30.33R WCI   4
LE MARS *      CLOUDY    19  16  86 N14       30.39R WCI   6
ORANGE CITY *  CLOUDY    16  12  86 N13       30.36R WCI   2
SHELDON *      CLOUDY    14  10  85 N15G22    30.35R WCI  -1
SIOUX CITY     CLOUDY    21  16  81 NW12      30.38R WCI   9
SPENCER        CLOUDY    13   6  74 N21       30.35R WCI  -5
STORM LAKE *   CLOUDY    16  14  93 N14       30.33R WCI   1
$$

IAZ055>058-069>071-079>083-090>094-121400-
   SOUTHWEST IOWA

CITY           SKY/WX    TMP DP  RH WIND       PRES   REMARKS
ATLANTIC *     CLOUDY    19  16  86 N9        30.34R WCI   9
AUDUBON *      MOCLDY    18  14  86 NW12      30.33R WCI   5
CLARINDA *     CLOUDY    23  19  86 N14G21    30.36R WCI  11
COUNCIL BLFS * CLOUDY    19  18  93 N9        30.35R WCI   9
CRESTON *      CLOUDY    19  14  79 N18       30.31R WCI   4
HARLAN  *      CLOUDY    19  16  86 N15       30.37R WCI   5
LAMONI         CLOUDY    23  18  81 NW20      30.28R WCI   8
RED OAK *      CLOUDY    21  18  86 N17       30.35R WCI   7
SHENANDOAH *   CLOUDY    23  21  93 N10       30.37R WCI  12
$$

IAZ047>049-059>061-072>074-084-121400-
   CENTRAL IOWA

CITY           SKY/WX    TMP DP  RH WIND       PRES   REMARKS
AMES           CLOUDY    18  12  77 NW17      30.30R WCI   3
ANKENY *       CLOUDY    19  14  79 NW12      30.30R WCI   7
BOONE *        CLOUDY    18  12  79 NW18      30.28R WCI   2
CHARITON *     CLOUDY    19  16  86 NW14G22   30.29R WCI   6
DES MOINES     FLURRIES  19  13  77 NW13      30.30R WCI   6
GRINNELL*      CLOUDY    18  14  86 NW15      30.26R WCI   3
KNOXVILLE *    CLOUDY    19  14  79 NW16      30.26R WCI   5
MARSHALLTOWN   CLOUDY    16  12  84 NW15      30.26R WCI   1
NEWTON *       FLURRIES  18  16  93 NW16      30.27R WCI   3
PELLA *        CLOUDY    19  16  86 NW13      30.29R WCI   7
$$

IAZ004>006-015-016-023>025-035-036-121400-
   NORTH CENTRAL IOWA

CITY           SKY/WX    TMP DP  RH WIND       PRES   REMARKS
ALGONA *       FLURRIES  14  10  85 N17G25    30.30R WCI  -3
CLARION *      CLOUDY    14  10  85 NW21      30.29R WCI  -4
ESTHERVILLE    CLOUDY    11   7  84 N20       30.32R WCI  -7
FORT DODGE *   CLOUDY    16   9  73 NW7       30.33R WCI   6
MASON CITY     LGT SNOW  13  10  88 NW17      30.27R FOG     WCI  -4
FOREST CITY *  LGT SNOW  14  10  85 NW17      30.27R WCI  -3
WEBSTER CITY * CLOUDY    16  12  86 NW20      30.29R WCI  -1
IOWA FALLS *   CLOUDY    16  14  93 NW17      30.28R WCI   0
$$

IAZ007>011-017>019-026>030-037>042-050>054-066-121400-
   NORTHEAST IOWA

CITY           SKY/WX    TMP DP  RH WIND       PRES   REMARKS
CEDAR RAPIDS   CLOUDY    18  15  88 NW14      30.23R WCI   4
CHARLES CITY * CLOUDY    14  12  92 NW14G20   30.25R WCI  -1
CLINTON *      CLOUDY    19  15  84 NW17      30.21R WCI   4
DECORAH *      CLOUDY    12   9  85 NW8       30.20R WCI   1
DUBUQUE        CLOUDY    15  10  80 NW14      30.18R WCI   0
MONTICELLO *   CLOUDY    16  10  79 NW13G20   30.21S WCI   2
OELWEIN *      CLOUDY    14  10  85 NW16      30.23R WCI  -2
WATERLOO       CLOUDY    15  10  80 NW18      30.25R WCI  -2
$$

IAZ064-065-067-068-078-121400-
   EAST CENTRAL IOWA

CITY           SKY/WX    TMP DP  RH WIND       PRES   REMARKS
DAVENPORT      CLOUDY    20  16  84 NW17      30.21S WCI   5
IOWA CITY      CLOUDY    20  15  81 NW16G24   30.26R WCI   6
MT. PLEASANT * CLOUDY    23  19  86 W6        30.24S WCI  16
MUSCATINE *    CLOUDY    23  18  80 W12       30.25R WCI  12
QUAD CITIES    CLOUDY    22  16  78 W13       30.22R WCI  10
$$

IAZ062-063-075>077-085>089-095>099-121400-
   SOUTHEAST IOWA

CITY           SKY/WX    TMP DP  RH WIND       PRES   REMARKS
BURLINGTON     CLOUDY    21  18  88 W7        30.23R WCI  12
FAIRFIELD *    CLOUDY    21  18  86 NW14      30.25R WCI   8
FORT MADISON * CLOUDY    19  18  93 W7        30.24S WCI  10
KEOKUK *       CLOUDY    19  18  93 CALM      30.24S
OSKALOOSA *    CLOUDY    19  18  93 NW14      30.26R WCI   6
CENTERVILLE *  CLOUDY    23  19  86 NW12      30.27R WCI  12
OTTUMWA        CLOUDY    20  18  92 NW15      30.26R WCI   6
WASHINGTON *   CLOUDY    21  19  93 NW13      30.26R WCI   9
$$

ABBREVIATIONS USED IN REMARKS
   TC - TEMPERATURES IN CELSIUS
  WCI - WIND CHILL INDEX
   HX - HEAT INDEX
  VSB - VISIBILITY
$$




USA.gov is the U.S. government's official web portal to all federal, state and local government web resources and services.